This demonstration page uses our WeatherBlox Daily Observations layout. Learn more.

Left ArrowRight Arrow

34.16533, -84.80231

Hourly Observations for September 2, 2022

Temp ( °F °C ) Dew Point ( °F °C ) Humidity (%) Winds ( mph kmh ) Pressure ( in mb ) Visibility ( mi km ) Precip ( " mm )
12:15 am 00:15 Mostly Cloudy 75 24 70 21 83 83 Calm 30.01 1016 10 16 0.00 0.00
12:35 am 00:35 Mostly Cloudy 75 24 70 21 83 83 Calm 30.01 1016 10 16 0.00 0.00
12:55 am 00:55 Cloudy 73 23 70 21 89 89 Calm 30.02 1016 10 16 0.00 0.00
1:15 am 01:15 Cloudy 73 23 70 21 89 89 E 3 6 30.02 1017 10 16 0.00 0.00
1:35 am 01:35 Mostly Cloudy 73 23 70 21 89 89 Calm 30.02 1017 10 16 0.00 0.00
1:55 am 01:55 Mostly Clear 73 23 70 21 89 89 Calm 30.02 1016 10 16 0.00 0.00
2:15 am 02:15 Mostly Cloudy 72 22 70 21 94 94 Calm 30.02 1017 10 16 0.00 0.00
2:35 am 02:35 Partly Cloudy 72 22 70 21 94 94 Calm 30.02 1017 10 16 0.00 0.00
2:55 am 02:55 Clear 72 22 70 21 94 94 Calm 30.02 1017 10 16 0.00 0.00
3:15 am 03:15 Partly Cloudy 73 23 70 21 89 89 ESE 3 6 30.02 1016 10 16 0.00 0.00
3:35 am 03:35 Partly Cloudy 73 23 70 21 89 89 Calm 30.02 1016 10 16 0.00 0.00
3:55 am 03:55 Mostly Cloudy 73 23 70 21 89 89 Calm 30.02 1016 10 16 0.00 0.00
4:15 am 04:15 Cloudy 73 23 70 21 89 89 E 3 6 30.02 1017 10 16 0.00 0.00
4:35 am 04:35 Mostly Cloudy 73 23 70 21 89 89 Calm 30.02 1017 10 16 0.00 0.00
4:55 am 04:55 Partly Cloudy 73 23 70 21 89 89 Calm 30.03 1017 10 16 0.00 0.00
5:15 am 05:15 Clear 72 22 70 21 94 94 Calm 30.04 1017 10 16 0.00 0.00
5:35 am 05:35 Clear 72 22 70 21 94 94 Calm 30.06 1018 10 16 0.00 0.00
5:55 am 05:55 Clear 73 23 70 21 89 89 Calm 30.05 1018 10 16 0.00 0.00
6:15 am 06:15 Mostly Clear 73 23 70 21 89 89 Calm 30.05 1018 10 16 0.00 0.00
6:35 am 06:35 Clear 72 22 70 21 94 94 Calm 30.07 1018 10 16 0.00 0.00
6:55 am 06:55 Clear 72 22 70 21 94 94 Calm 30.07 1018 10 16 0.00 0.00
7:15 am 07:15 Sunny 72 22 70 21 94 94 Calm 30.07 1018 10 16 0.00 0.00
7:35 am 07:35 Sunny 72 22 70 21 94 94 Calm 30.07 1018 9 14 0.00 0.00
7:55 am 07:55 Sunny 72 22 70 21 94 94 Calm 30.09 1019 10 16 0.00 0.00
8:15 am 08:15 Sunny 72 22 72 22 100 100 Calm 30.09 1019 10 16 0.00 0.00
8:35 am 08:35 Sunny 73 23 72 22 94 94 Calm 30.08 1019 10 16 0.00 0.00
8:55 am 08:55 Sunny 75 24 72 22 89 89 E 6 9 30.08 1019 10 16 0.00 0.00
9:15 am 09:15 Sunny 77 25 72 22 83 83 E 5 7 30.09 1019 10 16 0.00 0.00
9:35 am 09:35 Sunny 79 26 72 22 79 79 E 5 7 30.09 1019 10 16 0.00 0.00
9:55 am 09:55 Mostly Sunny 79 26 72 22 79 79 undefined N/A 30.10 1019 10 16 0.00 0.00
10:15 am 10:15 Mostly Sunny 81 27 70 21 70 70 SE 7 11 30.09 1019 10 16 0.00 0.00
10:35 am 10:35 Partly Cloudy 79 26 70 21 74 74 VRB 5 7 30.11 1019 10 16 0.00 0.00
10:55 am 10:55 Partly Cloudy 81 27 70 21 70 70 VRB 5 7 30.09 1019 10 16 0.00 0.00
11:15 am 11:15 Partly Cloudy 82 28 70 21 66 66 VRB 6 9 30.09 1019 10 16 0.00 0.00
11:35 am 11:35 Mostly Sunny 84 29 70 21 62 62 VRB 6 9 30.09 1019 10 16 0.00 0.00
11:55 am 11:55 Mostly Sunny 82 28 70 21 66 66 E 6 9 30.09 1019 10 16 0.00 0.00
12:15 pm 12:15 Mostly Sunny 84 29 70 21 62 62 E 9 15 30.08 1019 10 16 0.00 0.00
12:35 pm 12:35 Sunny 84 29 68 20 58 58 E 9 15 30.08 1019 10 16 0.00 0.00
12:55 pm 12:55 Sunny 84 29 68 20 58 58 VRB 6 9 30.08 1019 10 16 0.00 0.00
1:15 pm 13:15 Sunny 86 30 68 20 55 55 E 9 15 30.07 1018 10 16 0.00 0.00
1:35 pm 13:35 Sunny 86 30 68 20 55 55 ESE 8 13 30.07 1018 10 16 0.00 0.00
1:55 pm 13:55 Sunny 86 30 70 21 59 59 VRB 5 7 30.06 1018 10 16 0.00 0.00
2:15 pm 14:15 Partly Cloudy 84 29 70 21 62 62 E 7 11 30.06 1018 10 16 0.00 0.00
2:35 pm 14:35 Partly Cloudy 88 31 68 20 52 52 VRB 7 11 30.05 1018 10 16 0.00 0.00
2:55 pm 14:55 Partly Cloudy 88 31 70 21 55 55 VRB 7 11 30.05 1018 10 16 0.00 0.00
3:15 pm 15:15 Mostly Cloudy with Haze 86 30 70 21 59 59 VRB 6 9 30.05 1017 4 6 0.00 0.00
3:35 pm 15:35 Partly Cloudy 82 28 70 21 66 66 ENE 12 19 30.05 1018 10 16 0.00 0.00
3:55 pm 15:55 Mostly Cloudy 82 28 70 21 66 66 VRB 7 11 30.04 1017 10 16 0.00 0.00
4:15 pm 16:15 Partly Cloudy 84 29 70 21 62 62 E 8 13 30.03 1017 10 16 0.00 0.00
4:35 pm 16:35 Mostly Sunny 84 29 70 21 62 62 E 8 13 30.03 1017 10 16 0.00 0.00
4:55 pm 16:55 Mostly Cloudy 86 30 70 21 59 59 VRB 7 11 30.03 1017 10 16 0.00 0.00
5:15 pm 17:15 Mostly Cloudy 86 30 72 22 62 62 VRB 6 9 30.03 1017 10 16 0.00 0.00
5:35 pm 17:35 Mostly Cloudy 82 28 68 20 62 62 E 9 15 30.04 1017 10 16 0.00 0.00
5:55 pm 17:55 Partly Cloudy 82 28 68 20 62 62 VRB 7 11 30.04 1017 10 16 0.00 0.00
6:15 pm 18:15 Mostly Cloudy 82 28 68 20 62 62 E 7 11 30.04 1017 10 16 0.00 0.00
6:35 pm 18:35 Cloudy 82 28 70 21 66 66 VRB 7 11 30.04 1017 10 16 0.00 0.00
6:55 pm 18:55 Mostly Cloudy 82 28 70 21 66 66 VRB 6 9 30.05 1018 10 16 0.00 0.00
7:15 pm 19:15 Mostly Cloudy 82 28 70 21 66 66 ESE 8 13 30.05 1018 10 16 0.00 0.00
7:35 pm 19:35 Cloudy 79 26 68 20 70 70 ESE 8 13 30.06 1018 10 16 0.00 0.00
7:55 pm 19:55 Cloudy 79 26 68 20 70 70 VRB 6 9 30.06 1018 10 16 0.00 0.00
8:15 pm 20:15 Cloudy 77 25 68 20 74 74 E 7 11 30.07 1018 10 16 0.00 0.00
8:35 pm 20:35 Cloudy 77 25 68 20 74 74 ESE 5 7 30.07 1018 10 16 0.00 0.00
8:55 pm 20:55 Cloudy 77 25 70 21 79 79 E 6 9 30.08 1019 10 16 0.00 0.00
9:15 pm 21:15 Cloudy 77 25 70 21 79 79 E 5 7 30.08 1019 10 16 0.00 0.00
9:35 pm 21:35 Cloudy 77 25 70 21 79 79 Calm 30.09 1019 10 16 0.00 0.00
9:55 pm 21:55 Cloudy 75 24 70 21 83 83 E 5 7 30.09 1019 10 16 0.00 0.00
10:15 pm 22:15 Cloudy 75 24 72 22 89 89 Calm 30.10 1019 10 16 0.00 0.00
10:35 pm 22:35 Cloudy 75 24 72 22 89 89 Calm 30.10 1019 10 16 0.00 0.00
10:55 pm 22:55 Cloudy 75 24 72 22 89 89 ESE 6 9 30.10 1019 10 16 0.00 0.00
11:15 pm 23:15 Cloudy 75 24 72 22 89 89 E 7 11 30.10 1019 10 16 0.00 0.00
11:35 pm 23:35 Cloudy 75 24 72 22 89 89 E 8 13 30.10 1019 10 16 0.00 0.00
11:55 pm 23:55 Mostly Cloudy 75 24 72 22 89 89 VRB 5 7 30.10 1019 10 16 0.00 0.00

Powered by AerisWeather